Temperature
14 14 14 14 14 14 14 13 13 13 12 11 11 11 11 11 11 11 11 11 11 11 11 11 11 11 10 10 10 10 10 10 10 10 10 9 9 9
14 14 14 14 13 13 13 13 13 13 12 12 12 11 11 11 11 11 11 11 11 11 11 11 11 11 10 10 10 10 10 10 10 10 9 9 9 9
14 14 13 13 13 13 13 13 13 13 13 12 11 11 11 11 11 11 11 11 11 11 11 11 11 11 10 10 10 10 10 10 10 10 9 9 9 9
13 13 13 13 13 13 13 13 13 13 12 12 11 11 11 11 11 11 11 10 11 10 10 10 10 10 10 10 10 10 10 10 9 9 9 9 9 8
13 13 13 13 13 13 13 13 12 12 12 12 11 11 11 11 11 10 10 10 10 10 10 10 10 10 10 10 10 10 9 9 9 9 9 9 9 8
13 13 13 13 13 13 13 12 12 12 12 11 11 11 11 11 10 10 10 10 10 10 10 10 10 10 10 10 9 9 9 9 9 9 9 8 8 8
13 13 13 13 13 13 13 12 12 12 11 11 11 11 11 11 10 10 10 10 10 10 10 10 10 10 10 9 9 9 9 9 9 8 8 8 8 8
13 13 13 13 13 12 12 12 12 12 11 11 11 11 11 11 10 10 10 10 10 10 10 10 10 10 9 9 9 9 9 8 8 8 8 8 8 7
13 12 12 13 12 12 12 12 12 12 11 11 11 11 11 11 10 10 10 10 10 10 10 10 10 9 9 9 9 9 8 8 8 8 8 7 7 7
12 12 12 12 12 12 12 12 12 11 11 11 11 11 11 11 10 10 10 10 9 10 9 9 9 9 9 9 9 8 8 8 8 7 7 7 7 7
12 12 12 12 12 12 12 12 11 11 11 11 11 10 10 10 10 10 10 9 9 9 9 9 9 9 9 9 8 8 8 8 7 7 7 7 6 6
12 12 12 12 11 11 11 11 11 11 10 10 10 10 10 10 10 10 9 9 9 9 9 9 9 8 8 8 8 8 7 7 7 7 6 6 6 6
12 11 11 11 11 11 11 11 11 10 10 10 10 10 10 9 9 9 9 9 8 8 8 8 8 8 7 7 8 7 7 7 7 6 6 6 6 5
11 11 11 11 11 10 10 10 10 10 10 10 9 9 9 9 9 9 9 8 8 8 8 8 7 7 7 7 7 7 7 6 6 6 6 5 5 5
11 10 10 10 10 10 10 10 10 9 9 9 9 9 9 9 9 8 8 8 8 8 7 7 7 7 7 6 6 6 6 6 6 5 5 5 5 5
10 10 10 10 10 10 9 9 9 9 9 9 9 8 8 8 8 8 8 8 7 7 7 7 7 7 6 6 6 6 5 5 5 5 5 4 4 4
10 10 9 9 9 9 9 9 9 9 9 8 8 8 8 8 8 8 7 7 7 7 7 7 7 6 6 6 5 5 5 5 5 5 4 4 4 4
10 9 9 9 9 9 9 9 9 8 8 8 8 8 8 7 7 7 7 6 6 6 6 6 6 6 6 5 5 5 5 5 4 4 4 4 4 4
9 9 9 9 9 8 8 8 8 8 8 8 7 7 7 7 7 7 6 6 6 6 6 6 5 5 5 5 5 5 4 4 4 4 3 3 3 3
9 9 9 8 8 8 8 8 8 8 7 7 7 7 7 6 6 6 6 6 6 6 5 5 5 5 4 4 4 4 4 4 3 3 3 3 3 3
8 8 8 8 8 8 8 8 7 7 7 7 6 6 6 6 6 6 6 5 5 5 5 5 5 4 4 4 4 4 4 3 3 3 3 2 2 2
8 8 8 8 8 8 8 7 7 7 7 7 6 6 6 6 5 5 5 5 5 5 4 4 4 4 3 3 3 3 3 3 3 2 2 2 2 1
8 8 8 8 8 7 7 7 7 7 7 6 6 6 6 5 5 5 5 4 4 4 4 4 3 3 3 3 3 3 2 2 2 2 2 2 1 1
Wind_Speed
2 1 2 1 2 2 2 2 2 2 1 2 1 2 6 7 8 7 7 6 6 6 6 5 6 6 6 6 6 6 7 7 7 7 7 8 8 8
1 2 2 1 2 2 2 2 2 2 2 1 2 2 4 5 6 7 7 7 6 5 5 4 4 5 5 5 5 5 6 6 6 6 6 7 7 7
1 2 2 2 2 2 2 2 2 3 3 1 2 2 3 3 4 6 8 8 6 5 5 4 4 4 3 4 4 4 4 4 4 5 5 5 6 6
2 2 2 2 2 2 2 2 2 2 4 3 2 1 2 3 3 3 5 6 6 6 6 5 4 3 2 1 2 2 2 2 3 3 4 4 5 5
2 2 3 3 2 2 2 2 2 3 3 3 2 1 1 1 1 2 3 3 4 5 6 6 5 4 2 1 0 1 1 1 2 2 3 4 4 5
1 1 2 3 2 2 3 2 3 3 3 3 2 2 1 1 1 1 1 2 2 3 4 6 6 5 4 3 2 2 2 2 2 2 2 3 4 5
1 2 3 5 5 3 3 2 3 2 2 2 2 1 1 1 2 2 2 2 2 2 2 4 5 5 5 5 5 4 4 3 3 3 3 3 4 5
3 2 3 4 5 5 6 5 4 3 3 2 2 2 2 2 1 1 1 1 2 2 2 2 3 3 5 6 6 6 5 6 6 5 5 5 5 6
3 3 2 3 4 3 3 3 2 2 3 3 3 3 2 2 2 1 2 2 3 2 1 2 2 3 4 5 7 8 8 7 7 7 7 7 7 7
2 3 3 3 3 3 3 3 2 1 2 2 3 2 2 2 3 3 3 2 2 1 1 2 2 3 3 4 7 8 9 9 8 8 8 8 8 8
2 2 3 3 4 5 3 2 2 1 2 4 4 3 3 3 2 1 0 0 2 2 1 1 2 2 2 3 5 6 7 8 8 8 9 9 9 9
2 2 3 4 5 5 3 3 3 3 2 2 2 2 2 2 3 3 3 2 2 2 2 1 2 0 2 2 2 3 5 6 8 8 9 10 9 8
2 2 2 5 5 4 3 2 3 2 2 3 2 2 2 2 2 4 3 3 3 3 2 1 1 1 1 2 2 3 3 3 5 6 8 9 9 7
2 2 3 6 6 5 3 3 3 2 1 1 1 2 2 2 2 3 3 3 3 4 3 2 2 2 1 2 3 2 2 3 3 3 5 6 7 9
1 2 3 4 4 3 5 5 4 3 2 2 3 3 3 2 2 1 1 1 1 2 1 1 2 1 2 2 3 3 3 3 2 2 3 4 4 4
2 2 3 4 3 3 3 4 4 3 3 3 3 2 1 1 1 1 1 1 1 2 2 2 2 2 2 3 3 3 2 2 3 3 3 4 5 6
3 2 2 2 2 3 3 3 3 3 3 3 2 2 2 2 2 2 2 1 2 3 3 2 2 3 3 3 3 4 3 4 4 3 3 4 5 5
3 3 3 4 4 4 4 3 3 3 3 3 3 3 3 3 2 2 2 2 3 3 3 2 1 1 2 3 5 5 4 4 4 4 3 4 6 5
3 3 3 4 4 4 3 4 4 3 3 3 3 3 3 3 2 2 3 3 3 3 3 2 2 2 3 5 4 5 4 4 3 4 4 4 6 6
4 4 5 4 4 4 4 4 3 3 3 3 3 3 3 2 2 2 3 3 3 3 3 3 3 4 5 5 4 4 6 5 4 5 5 4 5 7
5 5 5 5 4 5 4 4 4 4 4 3 3 3 3 3 3 3 3 4 3 3 3 4 4 4 3 1 3 4 4 8 7 5 4 4 4 4
5 5 5 4 4 4 4 4 4 4 4 4 3 3 3 3 3 4 3 3 3 4 4 4 2 1 1 2 4 5 5 5 7 9 8 7 4 5
6 5 5 4 4 4 4 4 5 4 4 4 3 3 3 3 3 3 3 3 3 3 3 3 2 2 2 3 4 5 6 5 4 4 5 9 11 12
Wind_Direction
69 74 88 80 75 76 90 120 134 131 135 150 128 127 119 119 133 132 124 118 111 104 95 87 80 74 70 67 64 63 58 53 50 45 41 38 36 34
77 68 66 75 77 78 71 48 70 127 131 136 147 150 135 136 145 142 138 133 132 126 115 104 94 85 78 71 65 64 59 56 50 42 38 35 32 29
153 122 102 92 104 103 94 73 62 88 114 114 116 128 124 128 134 147 142 146 152 155 145 130 115 102 87 74 61 56 52 47 40 32 26 22 20 18
135 126 127 108 93 92 104 106 101 104 129 137 136 145 157 157 155 161 162 168 168 171 165 160 151 138 121 82 54 40 39 31 24 16 9 8 7 7
158 145 147 136 143 141 129 118 120 115 115 133 152 149 168 169 153 175 175 180 179 175 177 182 182 184 199 214 229 343 345 352 354 351 352 349 345 346
104 123 123 132 135 144 135 132 130 123 122 131 149 162 167 191 150 198 245 229 208 186 188 190 196 202 211 219 228 254 263 273 294 308 323 331 332 331
78 74 90 104 102 100 109 108 117 127 140 145 158 157 178 164 200 219 224 250 253 193 191 200 193 196 211 224 228 235 241 247 257 272 290 305 313 315
148 149 138 117 118 116 108 103 106 129 152 157 172 177 203 198 202 211 217 237 271 251 184 235 183 186 206 205 214 221 235 241 247 256 267 281 293 299
162 174 177 156 148 159 150 133 124 139 149 156 170 200 200 205 184 215 231 234 236 240 168 249 221 213 217 216 216 221 229 237 243 252 263 272 281 287
187 176 168 176 182 156 156 166 178 192 182 157 182 202 187 179 186 206 226 242 270 280 167 233 246 233 224 223 229 227 228 233 240 249 262 271 277 281
211 183 179 166 168 166 161 172 176 202 176 167 172 179 177 169 158 95 341 224 269 277 271 225 258 251 236 229 233 226 230 235 239 250 262 268 271 277
205 188 182 168 170 171 180 186 196 210 189 190 211 239 233 222 200 180 190 205 239 269 259 206 261 288 290 258 215 248 249 251 249 258 266 269 269 274
197 188 185 174 173 178 182 190 205 211 203 203 208 217 225 221 207 202 197 188 206 242 237 170 237 236 241 275 266 241 238 257 259 270 276 276 274 271
203 192 186 181 183 191 198 204 210 220 222 206 207 217 221 229 221 202 195 193 208 232 236 184 209 213 240 281 281 286 278 274 255 253 275 283 279 276
211 192 182 187 187 198 207 209 208 212 207 207 216 226 219 209 189 180 177 186 247 278 261 231 200 215 204 242 268 282 293 286 279 272 276 270 268 274
221 189 184 188 193 208 215 219 217 209 199 207 213 220 216 201 193 186 199 208 242 280 283 275 248 203 232 254 257 274 276 278 296 282 280 281 289 277
185 176 185 196 212 220 217 214 213 208 209 209 207 211 215 212 211 191 190 196 222 248 269 272 261 237 226 229 255 259 264 270 270 270 277 278 274 276
172 195 205 208 209 210 210 213 214 214 214 208 204 206 212 214 217 213 205 214 232 242 246 246 246 300 307 282 239 246 255 260 264 263 261 270 276 280
178 201 208 208 215 215 214 215 214 213 205 200 207 214 215 212 213 217 217 226 237 242 244 230 203 203 251 275 274 243 241 259 265 268 260 261 270 274
204 208 215 214 215 215 215 216 213 206 202 206 210 209 203 204 214 218 222 228 238 245 252 244 222 216 228 246 260 268 252 243 254 264 269 271 273 286
214 216 218 216 215 213 212 212 207 205 204 204 210 213 210 205 218 226 227 238 235 239 247 251 243 239 238 251 280 284 274 263 258 252 261 275 287 287
215 215 217 218 213 211 208 206 205 204 205 207 212 215 212 209 219 226 227 235 240 242 249 253 255 245 240 252 268 278 288 297 288 284 279 267 261 269
216 215 214 216 212 205 204 206 206 206 205 205 208 209 208 214 224 230 238 242 248 240 242 257 262 254 252 251 264 276 282 289 296 300 296 296 287 285
Height
1553 1554 1554 1555 1555 1556 1556 1557 1558 1558 1558 1559 1559 1559 1558 1558 1557 1557 1557 1557 1556 1556 1556 1555 1555 1554 1554 1553 1553 1552 1551 1551 1550 1549 1548 1547 1545 1544
1553 1553 1553 1554 1554 1555 1555 1556 1556 1557 1557 1558 1558 1558 1558 1557 1557 1557 1557 1556 1556 1556 1555 1555 1554 1554 1553 1553 1552 1551 1551 1550 1549 1549 1547 1546 1545 1543
1552 1552 1553 1553 1553 1554 1554 1555 1555 1556 1555 1556 1557 1557 1557 1557 1557 1557 1556 1556 1556 1555 1555 1554 1554 1553 1553 1552 1551 1551 1550 1549 1548 1548 1546 1545 1544 1542
1551 1551 1552 1552 1553 1553 1553 1554 1554 1555 1555 1555 1556 1556 1556 1556 1556 1556 1556 1555 1555 1555 1554 1554 1553 1553 1552 1552 1551 1550 1549 1548 1548 1547 1545 1544 1543 1541
1550 1550 1550 1551 1551 1552 1552 1552 1553 1553 1554 1554 1555 1555 1555 1556 1555 1555 1555 1555 1554 1554 1553 1553 1553 1552 1551 1551 1550 1549 1548 1547 1546 1545 1544 1543 1541 1540
1548 1549 1549 1550 1550 1550 1551 1551 1552 1552 1553 1553 1553 1554 1554 1554 1554 1554 1554 1554 1553 1553 1552 1552 1551 1551 1550 1549 1549 1548 1547 1546 1545 1544 1542 1541 1539 1538
1546 1547 1548 1548 1549 1549 1550 1550 1550 1551 1551 1551 1552 1552 1552 1553 1553 1553 1552 1552 1552 1551 1551 1550 1549 1549 1548 1548 1547 1546 1545 1544 1543 1542 1540 1539 1537 1536
1544 1545 1546 1546 1547 1547 1548 1549 1549 1549 1549 1550 1550 1550 1550 1551 1551 1551 1550 1550 1549 1550 1549 1548 1548 1547 1546 1545 1545 1544 1543 1542 1541 1539 1538 1536 1535 1533
1542 1543 1543 1544 1545 1545 1546 1547 1547 1548 1548 1548 1548 1548 1548 1548 1548 1548 1548 1548 1547 1547 1547 1545 1545 1544 1544 1543 1542 1541 1540 1539 1538 1536 1535 1534 1532 1530
1540 1540 1541 1542 1542 1543 1543 1544 1544 1545 1545 1546 1546 1546 1546 1546 1546 1546 1545 1545 1545 1544 1544 1543 1542 1541 1541 1540 1539 1538 1537 1536 1535 1533 1532 1530 1529 1527
1537 1538 1539 1539 1540 1540 1541 1541 1541 1542 1543 1543 1543 1543 1543 1544 1543 1543 1543 1542 1541 1541 1541 1540 1539 1538 1538 1537 1536 1535 1534 1533 1532 1530 1529 1527 1526 1524
1534 1535 1535 1536 1537 1537 1538 1538 1538 1539 1539 1540 1540 1540 1540 1540 1540 1540 1539 1539 1538 1537 1537 1537 1535 1535 1534 1533 1533 1532 1531 1529 1528 1527 1525 1524 1522 1521
1530 1531 1532 1533 1534 1534 1534 1535 1535 1536 1536 1536 1536 1536 1536 1536 1536 1536 1536 1536 1535 1534 1534 1533 1532 1532 1531 1530 1529 1528 1527 1526 1524 1523 1522 1520 1519 1517
1527 1528 1529 1529 1530 1530 1531 1531 1532 1532 1532 1532 1532 1532 1532 1532 1532 1532 1532 1531 1531 1531 1530 1530 1529 1528 1527 1526 1525 1524 1523 1522 1520 1519 1517 1516 1515 1513
1523 1524 1525 1526 1526 1526 1527 1528 1528 1528 1528 1528 1528 1528 1528 1528 1528 1528 1527 1527 1527 1527 1526 1526 1525 1524 1523 1522 1521 1520 1519 1518 1516 1515 1513 1511 1510 1508
1519 1519 1520 1521 1522 1522 1523 1523 1524 1524 1524 1524 1524 1524 1524 1524 1523 1523 1523 1523 1523 1522 1522 1522 1521 1520 1519 1518 1517 1516 1515 1513 1512 1510 1509 1507 1506 1504
1514 1515 1515 1516 1517 1517 1518 1519 1519 1519 1520 1520 1520 1520 1520 1520 1519 1519 1519 1519 1518 1518 1517 1517 1517 1516 1515 1515 1513 1512 1510 1509 1508 1506 1504 1502 1500 1499
1510 1510 1511 1512 1512 1513 1513 1514 1515 1515 1515 1515 1515 1515 1515 1515 1515 1515 1515 1515 1514 1513 1513 1513 1512 1511 1511 1509 1509 1507 1506 1504 1503 1502 1500 1497 1495 1494
1505 1506 1506 1507 1508 1508 1509 1509 1510 1510 1510 1510 1511 1510 1511 1511 1510 1510 1510 1510 1509 1509 1509 1508 1508 1507 1505 1504 1503 1503 1501 1500 1498 1497 1495 1493 1490 1488
1501 1502 1502 1503 1504 1504 1504 1505 1506 1506 1506 1506 1506 1506 1506 1506 1506 1505 1505 1505 1505 1504 1504 1504 1503 1502 1501 1500 1498 1497 1497 1496 1494 1492 1490 1487 1485 1483
1496 1497 1498 1499 1499 1500 1500 1501 1501 1501 1501 1502 1502 1502 1501 1501 1501 1501 1501 1500 1500 1499 1499 1498 1498 1498 1497 1496 1494 1492 1492 1491 1490 1488 1485 1483 1480 1477
1491 1492 1493 1494 1495 1495 1495 1496 1496 1496 1496 1497 1497 1497 1497 1497 1496 1496 1496 1495 1495 1494 1494 1493 1493 1493 1492 1490 1488 1487 1486 1486 1485 1484 1482 1480 1477 1473
1486 1487 1488 1489 1489 1490 1490 1491 1491 1491 1491 1491 1492 1492 1492 1491 1491 1491 1491 1490 1490 1489 1488 1488 1487 1487 1486 1485 1484 1482 1481 1480 1478 1477 1475 1474 1473 1470